| time (UTC) | temp F | wind direction | speed knots | gust knots | rain 1hr in | rain 24hr in | rain mn in | humidity % | barometer mb |
| 20260503210020 | 62 | 176 | 7.0 | 17.4 | 0.00 | 0.00 | 0.00 | 43 | 1010.6 |
| 20260503204528 | 62 | 212 | 8.7 | 18.2 | 0.00 | 0.00 | 0.00 | 43 | 1010.6 |
| 20260503203003 | 61 | 171 | 5.2 | 19.1 | 0.00 | 0.00 | 0.00 | 45 | 1010.8 |
| 20260503201504 | 61 | 243 | 4.3 | 17.4 | 0.00 | 0.00 | 0.00 | 45 | 1010.9 |
| 20260503200004 | 61 | 231 | 8.7 | 20.0 | 0.00 | 0.00 | 0.00 | 42 | 1010.9 |
| 20260503194504 | 62 | 269 | 9.6 | 18.2 | 0.00 | 0.00 | 0.00 | 43 | 1011.2 |
| 20260503193007 | 61 | 254 | 8.7 | 17.4 | 0.00 | 0.00 | 0.00 | 42 | 1011.4 |
| 20260503191503 | 61 | 203 | 7.8 | 15.6 | 0.00 | 0.00 | 0.00 | 45 | 1011.7 |
| 20260503190006 | 61 | 203 | 7.0 | 19.1 | 0.00 | 0.00 | 0.00 | 43 | 1011.7 |
| 20260503184507 | 61 | 236 | 6.1 | 15.6 | 0.00 | 0.00 | 0.00 | 44 | 1011.8 |
| 20260503183003 | 62 | 251 | 8.7 | 18.2 | 0.00 | 0.00 | 0.00 | 41 | 1012.0 |
| 20260503181517 | 62 | 193 | 9.6 | 23.5 | 0.00 | 0.00 | 0.00 | 41 | 1012.2 |
| 20260503180014 | 61 | 253 | 6.1 | 16.5 | 0.00 | 0.00 | 0.00 | 42 | 1012.7 |
| 20260503174505 | 61 | 256 | 7.0 | 17.4 | 0.00 | 0.00 | 0.00 | 39 | 1012.9 |
| 20260503173007 | 61 | 204 | 8.7 | 17.4 | 0.00 | 0.00 | 0.00 | 43 | 1012.9 |
| 20260503171511 | 61 | 165 | 7.0 | 13.9 | 0.00 | 0.00 | 0.00 | 42 | 1013.2 |
| 20260503081518 | 34 | 208 | 0.9 | 2.6 | 0.00 | 0.00 | 0.00 | 75 | 1015.6 |
| 20260503071520 | 34 | 227 | 0.0 | 1.7 | 0.00 | 0.00 | 0.00 | 80 | 1015.7 |
| 20260503054532 | 31 | 317 | 0.0 | 0.9 | 0.00 | 0.00 | 0.00 | 90 | 1016.2 |
| 20260503053015 | 31 | 317 | 0.0 | 0.0 | 0.00 | 0.00 | 0.00 | 89 | 1016.3 |
| 20260503051515 | 31 | 317 | 0.0 | 0.0 | 0.00 | 0.00 | 0.00 | 90 | 1016.5 |
| 20260503050018 | 31 | 317 | 0.0 | 0.0 | 0.00 | 0.00 | 0.00 | 89 | 1016.6 |
| 20260503044522 | 32 | 317 | 0.0 | 0.0 | 0.00 | 0.00 | 0.00 | 90 | 1016.6 |
| 20260503043026 | 33 | 317 | 0.0 | 0.0 | 0.00 | 0.00 | 0.00 | 90 | 1016.5 |
| 20260503041510 | 33 | 317 | 0.0 | 0.0 | 0.00 | 0.00 | 0.00 | 90 | 1016.5 |
| 20260503040027 | 33 | 317 | 0.0 | 0.0 | 0.00 | 0.00 | 0.00 | 90 | 1016.7 |
| 20260503034504 | 33 | 317 | 0.0 | 0.0 | 0.00 | 0.00 | 0.00 | 90 | 1016.7 |
| 20260503033004 | 33 | 317 | 0.0 | 0.0 | 0.00 | 0.00 | 0.00 | 88 | 1016.7 |
| 20260503031508 | 33 | 317 | 0.0 | 0.9 | 0.00 | 0.00 | 0.00 | 87 | 1016.6 |
| 20260503030009 | 34 | 317 | 0.0 | 0.0 | 0.00 | 0.00 | 0.00 | 88 | 1016.6 |
| 20260503024516 | 34 | 317 | 0.0 | 0.0 | 0.00 | 0.00 | 0.00 | 86 | 1016.7 |
| 20260503023004 | 35 | 317 | 0.0 | 0.0 | 0.00 | 0.00 | 0.00 | 86 | 1016.7 |
| 20260503021507 | 35 | 317 | 0.0 | 0.0 | 0.00 | 0.00 | 0.00 | 86 | 1016.7 |
| 20260503020009 | 36 | 317 | 0.0 | 0.0 | 0.00 | 0.00 | 0.00 | 84 | 1016.6 |
| 20260503014512 | 37 | 317 | 0.0 | 0.0 | 0.00 | 0.00 | 0.00 | 81 | 1016.6 |
| 20260503013016 | 38 | 317 | 0.0 | 0.0 | 0.00 | 0.00 | 0.00 | 78 | 1016.5 |
| 20260503011508 | 40 | 317 | 0.0 | 0.0 | 0.00 | 0.00 | 0.00 | 76 | 1016.5 |
| 20260503010008 | 42 | 317 | 0.0 | 0.0 | 0.00 | 0.00 | 0.00 | 72 | 1016.5 |
| 20260503004509 | 43 | 317 | 0.0 | 0.0 | 0.00 | 0.00 | 0.00 | 67 | 1016.4 |
| 20260503003013 | 44 | 317 | 0.0 | 0.0 | 0.00 | 0.00 | 0.00 | 61 | 1016.5 |
| 20260503001518 | 45 | 317 | 0.0 | 0.9 | 0.00 | 0.00 | 0.00 | 56 | 1016.6 |
| 20260503000022 | 46 | 317 | 0.0 | 0.9 | 0.00 | 0.00 | 0.00 | 52 | 1016.5 |
| 20260502234523 | 47 | 317 | 0.0 | 3.5 | 0.00 | 0.00 | 0.00 | 51 | 1016.5 |
| 20260502233011 | 47 | 246 | 0.9 | 2.6 | 0.00 | 0.00 | 0.00 | 50 | 1016.5 |
| 20260502231517 | 47 | 264 | 0.0 | 1.7 | 0.00 | 0.00 | 0.00 | 51 | 1016.6 |
| 20260502230021 | 47 | 264 | 0.0 | 3.5 | 0.00 | 0.00 | 0.00 | 51 | 1016.7 |
| 20260502224525 | 47 | 284 | 0.9 | 4.3 | 0.00 | 0.00 | 0.00 | 49 | 1016.7 |
| 20260502223007 | 47 | 239 | 0.9 | 6.1 | 0.00 | 0.00 | 0.00 | 48 | 1016.7 |
| 20260502221511 | 48 | 246 | 2.6 | 8.7 | 0.00 | 0.00 | 0.00 | 44 | 1016.7 |
| 20260502220025 | 48 | 288 | 1.7 | 6.1 | 0.00 | 0.00 | 0.00 | 46 | 1016.7 |
| 20260502214523 | 47 | 316 | 0.9 | 6.1 | 0.00 | 0.00 | 0.00 | 49 | 1016.7 |
| 20260502213031 | 47 | 276 | 1.7 | 5.2 | 0.00 | 0.00 | 0.00 | 44 | 1016.6 |
| 20260502211510 | 48 | 269 | 1.7 | 7.8 | 0.00 | 0.00 | 0.00 | 46 | 1016.7 |